When you browse on this site, cookies collect data to enhance your experience and personalize the content and advertising you see.
Visit our Privacy Policy to learn more. By continuing to use the site, you agree to this use of cookies and data.
  • In Germany
  • List of Countries
  • For 7 days
  • Water Temperature
  • Weather Map
  • Weather Widgets
  • user-avatar
    Login

    Hourly Weather Beverly

    Today, 24 September, Tuesday

    Time Temperature Precipitation Wind Pressure Humidity
    00:00 +16°C° 0 mm 5 mps 753 mmHg 89%
    01:00 +16°C° 0.1 mm 5 mps 752 mmHg 90%
    02:00 +17°C° 0.1 mm 4 mps 752 mmHg 91%
    03:00 +17°C° 0.1 mm 4 mps 751 mmHg 91%
    04:00 +17°C° 0.1 mm 4 mps 751 mmHg 92%
    05:00 +17°C° 0.1 mm 4 mps 750 mmHg 93%
    06:00 +17°C° 0.1 mm 4 mps 750 mmHg 93%
    07:00 +16°C° 0.3 mm 5 mps 749 mmHg 91%
    08:00 +17°C° 0.3 mm 6 mps 749 mmHg 89%
    09:00 +17°C° 0.3 mm 6 mps 748 mmHg 86%
    10:00 +17°C° 1.1 mm 6 mps 748 mmHg 86%
    11:00 +17°C° 1.1 mm 7 mps 747 mmHg 86%
    12:00 +17°C° 1.1 mm 7 mps 747 mmHg 86%
    13:00 +17°C° 0.6 mm 6 mps 746 mmHg 85%
    14:00 +17°C° 0.6 mm 6 mps 746 mmHg 84%
    15:00 +17°C° 0.6 mm 6 mps 746 mmHg 84%
    16:00 +17°C° 0.2 mm 5 mps 746 mmHg 84%
    17:00 +16°C° 0.2 mm 5 mps 746 mmHg 85%
    18:00 +16°C° 0.2 mm 5 mps 746 mmHg 85%
    19:00 +15°C° 0.1 mm 4 mps 746 mmHg 86%
    20:00 +15°C° 0.1 mm 4 mps 746 mmHg 86%
    21:00 +14°C° 0.1 mm 3 mps 747 mmHg 87%
    22:00 +14°C° 0 mm 3 mps 747 mmHg 89%
    23:00 +13°C° 0 mm 3 mps 746 mmHg 90%

    Tomorrow, 25 September, Wednesday

    Time Temperature Precipitation Wind Pressure Humidity
    00:00 +13°C° 0 mm 3 mps 746 mmHg 92%
    01:00 +13°C° 0 mm 3 mps 746 mmHg 92%
    02:00 +13°C° 0 mm 3 mps 746 mmHg 92%
    03:00 +13°C° 0 mm 4 mps 746 mmHg 91%
    04:00 +13°C° 0 mm 3 mps 746 mmHg 92%
    05:00 +13°C° 0 mm 3 mps 746 mmHg 93%
    06:00 +13°C° 0 mm 3 mps 746 mmHg 94%
    07:00 +13°C° 0 mm 3 mps 747 mmHg 92%
    08:00 +14°C° 0 mm 3 mps 747 mmHg 89%
    09:00 +16°C° 0 mm 3 mps 747 mmHg 87%
    10:00 +16°C° 0.2 mm 3 mps 747 mmHg 87%
    11:00 +16°C° 0.2 mm 2 mps 748 mmHg 87%
    12:00 +16°C° 0.2 mm 2 mps 748 mmHg 87%
    13:00 +17°C° 0.1 mm 2 mps 748 mmHg 85%
    14:00 +17°C° 0.1 mm 2 mps 748 mmHg 82%
    15:00 +19°C° 0.1 mm 1 mps 748 mmHg 80%
    16:00 +18°C° 0.1 mm 1 mps 748 mmHg 83%
    17:00 +18°C° 0.1 mm 1 mps 748 mmHg 85%
    18:00 +16°C° 0.1 mm 1 mps 749 mmHg 88%
    19:00 +16°C° 0 mm 1 mps 749 mmHg 89%
    20:00 +15°C° 0 mm 2 mps 749 mmHg 90%
    21:00 +15°C° 0 mm 2 mps 749 mmHg 91%
    22:00 +14°C° 0 mm 2 mps 749 mmHg 92%
    23:00 +14°C° 0 mm 2 mps 749 mmHg 92%

    Day after tomorrow, 26 September, Thursday

    Time Temperature Precipitation Wind Pressure Humidity
    00:00 +13°C° 0 mm 3 mps 749 mmHg 93%
    01:00 +13°C° 0 mm 3 mps 749 mmHg 92%
    02:00 +13°C° 0 mm 4 mps 749 mmHg 92%
    03:00 +13°C° 0 mm 4 mps 749 mmHg 91%
    04:00 +14°C° 0.7 mm 5 mps 748 mmHg 92%
    05:00 +15°C° 0.7 mm 5 mps 748 mmHg 92%
    06:00 +15°C° 0.7 mm 6 mps 748 mmHg 93%
    07:00 +16°C° 0.4 mm 6 mps 748 mmHg 85%
    08:00 +17°C° 0.4 mm 6 mps 748 mmHg 77%
    09:00 +17°C° 0.4 mm 6 mps 748 mmHg 69%
    10:00 +19°C° 0.1 mm 6 mps 748 mmHg 64%
    11:00 +19°C° 0.1 mm 6 mps 749 mmHg 59%
    12:00 +19°C° 0.1 mm 6 mps 749 mmHg 54%
    13:00 +19°C° 0 mm 6 mps 749 mmHg 54%
    14:00 +19°C° 0 mm 6 mps 749 mmHg 54%
    15:00 +19°C° 0 mm 6 mps 749 mmHg 54%
    16:00 +17°C° 0.1 mm 6 mps 749 mmHg 59%
    17:00 +15°C° 0.1 mm 6 mps 749 mmHg 64%
    18:00 +14°C° 0.1 mm 5 mps 749 mmHg 68%
    19:00 +14°C° 0.1 mm 5 mps 749 mmHg 70%
    20:00 +13°C° 0.1 mm 6 mps 750 mmHg 72%
    21:00 +13°C° 0.1 mm 6 mps 750 mmHg 74%
    22:00 +11°C° 0 mm 6 mps 750 mmHg 76%
    23:00 +11°C° 0 mm 6 mps 750 mmHg 78%

    27 September, Friday

    Time Temperature Precipitation Wind Pressure Humidity
    00:00 +11°C° 0 mm 6 mps 750 mmHg 80%
    01:00 +11°C° 0 mm 6 mps 750 mmHg 81%
    02:00 +11°C° 0 mm 6 mps 749 mmHg 81%
    03:00 +11°C° 0 mm 6 mps 749 mmHg 82%
    04:00 +11°C° 0.2 mm 7 mps 749 mmHg 83%
    05:00 +11°C° 0.2 mm 7 mps 748 mmHg 83%
    06:00 +11°C° 0.2 mm 7 mps 748 mmHg 84%
    07:00 +12°C° 0.5 mm 8 mps 748 mmHg 82%
    08:00 +12°C° 0.5 mm 8 mps 748 mmHg 79%
    09:00 +13°C° 0.5 mm 8 mps 748 mmHg 77%
    10:00 +15°C° 0.1 mm 8 mps 748 mmHg 71%
    11:00 +15°C° 0.1 mm 8 mps 748 mmHg 65%
    12:00 +16°C° 0.1 mm 7 mps 749 mmHg 59%
    13:00 +16°C° 0.1 mm 7 mps 749 mmHg 59%
    14:00 +16°C° 0.1 mm 7 mps 749 mmHg 59%
    15:00 +16°C° 0.1 mm 7 mps 749 mmHg 59%
    16:00 +15°C° 0.2 mm 6 mps 749 mmHg 66%
    17:00 +13°C° 0.2 mm 6 mps 749 mmHg 72%
    18:00 +12°C° 0.2 mm 5 mps 749 mmHg 79%
    19:00 +12°C° 0.4 mm 5 mps 749 mmHg 80%
    20:00 +12°C° 0.4 mm 5 mps 749 mmHg 82%
    21:00 +12°C° 0.4 mm 5 mps 749 mmHg 83%
    22:00 +12°C° 0.2 mm 5 mps 749 mmHg 83%
    23:00 +11°C° 0.2 mm 6 mps 749 mmHg 83%

    28 September, Saturday

    Time Temperature Precipitation Wind Pressure Humidity
    00:00 +11°C° 0.2 mm 6 mps 749 mmHg 83%
    01:00 +11°C° 0 mm 6 mps 750 mmHg 83%
    02:00 +10°C° 0 mm 6 mps 750 mmHg 84%
    03:00 +10°C° 0 mm 6 mps 750 mmHg 84%
    04:00 +10°C° 0 mm 6 mps 751 mmHg 85%
    05:00 +10°C° 0 mm 6 mps 751 mmHg 86%
    06:00 +9°C° 0 mm 5 mps 751 mmHg 87%
    07:00 +11°C° 0 mm 6 mps 752 mmHg 81%
    08:00 +13°C° 0 mm 6 mps 752 mmHg 76%
    09:00 +14°C° 0 mm 7 mps 753 mmHg 71%
    10:00 +15°C° 0 mm 7 mps 753 mmHg 67%
    11:00 +15°C° 0 mm 7 mps 753 mmHg 63%
    12:00 +16°C° 0 mm 7 mps 753 mmHg 60%
    13:00 +16°C° 0 mm 6 mps 753 mmHg 60%
    14:00 +16°C° 0 mm 6 mps 753 mmHg 60%
    15:00 +16°C° 0 mm 6 mps 753 mmHg 60%
    16:00 +16°C° 0 mm 6 mps 753 mmHg 65%
    17:00 +15°C° 0 mm 5 mps 753 mmHg 70%
    18:00 +14°C° 0 mm 4 mps 753 mmHg 75%
    19:00 +14°C° 0 mm 5 mps 754 mmHg 77%
    20:00 +13°C° 0 mm 5 mps 754 mmHg 79%
    21:00 +13°C° 0 mm 5 mps 754 mmHg 80%
    22:00 +12°C° 0 mm 5 mps 754 mmHg 79%
    23:00 +12°C° 0 mm 5 mps 753 mmHg 78%

    29 September, Sunday

    Time Temperature Precipitation Wind Pressure Humidity
    00:00 +12°C° 0 mm 5 mps 753 mmHg 77%
    01:00 +12°C° 0.2 mm 5 mps 753 mmHg 81%
    02:00 +12°C° 0.2 mm 5 mps 752 mmHg 84%
    03:00 +10°C° 0.2 mm 5 mps 752 mmHg 88%
    04:00 +10°C° 0.5 mm 5 mps 751 mmHg 90%
    05:00 +11°C° 0.5 mm 4 mps 751 mmHg 91%
    06:00 +11°C° 0.5 mm 4 mps 750 mmHg 93%
    07:00 +12°C° 0.8 mm 4 mps 750 mmHg 93%
    08:00 +12°C° 0.8 mm 4 mps 749 mmHg 93%
    09:00 +12°C° 0.8 mm 4 mps 749 mmHg 94%
    10:00 +12°C° 2.3 mm 4 mps 748 mmHg 94%
    11:00 +12°C° 2.3 mm 4 mps 748 mmHg 95%
    12:00 +13°C° 2.3 mm 4 mps 747 mmHg 95%
    13:00 +13°C° 1.1 mm 3 mps 746 mmHg 95%
    14:00 +13°C° 1.1 mm 3 mps 746 mmHg 95%
    15:00 +15°C° 1.1 mm 2 mps 745 mmHg 95%
    16:00 +13°C° 1 mm 3 mps 745 mmHg 94%
    17:00 +13°C° 1 mm 4 mps 746 mmHg 94%
    18:00 +13°C° 1 mm 5 mps 746 mmHg 94%
    19:00 +12°C° 0.6 mm 5 mps 747 mmHg 93%
    20:00 +12°C° 0.6 mm 5 mps 747 mmHg 92%
    21:00 +11°C° 0.6 mm 6 mps 748 mmHg 91%
    22:00 +12°C° 0 mm 5 mps 749 mmHg 92%
    23:00 +11°C° 0 mm 4 mps 749 mmHg 92%
    Show more